Tracking 35275 objects as of 8-Sep-2026
HD Live streaming from Space Station
objects crossing your sky now

COSMOS 260


COSMOS 260 is no longer on orbit


NORAD ID: 3619
Int'l Code: 1968-115A
Launch date: December 16, 1968
Source: Commonwealth of Independent States (former USSR) (CIS)
Launch site: TYURATAM MISSILE AND SPACE COMPLEX (TTMTR)
Decay date: 1973-07-09
Your satellite tracking list
Your tracking list is empty




NASA's NSSDC Master Catalog

Two Line Element Set (TLE):
1 03619U 68115  A 73147.63708227  .00034609 +00000-0 +00000-0 0  9999
2 03619 064.8084 044.0358 7490948 252.8231 019.5471 02.03794470032816
Source of the keplerian elements: AFSPC